Погода в Чуеве-Алабушке

Россия / Тамбовская область     51°51′14″N   42°05′59″E
темп.,
°C
ветер,
м/с
пор.,
м/с
влажн.,
%
обл.,
%
осадки,
мм/ч
давл.,
гПа
погр.,
м
28 сентября, вт
вт2800:00+8с389226 0.0 1018228
03:00+8ссв4791100 0.0 1019426
06:00+8ссв4786100 0.0 1020496
09:00+7ссв5786100 0.0 1022755
12:00+7ссв5687100 0.1 1023970
15:00+7св5884100 0.3 1025611
18:00+6св5981100 0.0 1027659
21:00+6св487981 0.0 1029610
29 сентября, ср
ср2900:00+7св366497 0.0 1030240
03:00+3ссв37845 0.0 1031126
06:00+2ссв378738 0.0 1031144
09:00+6св58645 0.0 1032566
12:00+10св564832 0.0 10311336
15:00+10ссв454395 0.0 10301432
18:00+7ссв35585 0.0 103175
21:00+5ссв346648 0.0 103253
30 сентября, чт
чт3000:00+4ссв227150 0.0 103221
03:00+3с22755 0.0 103324
06:00+3с33775 0.0 103342
09:00+8ссв34595 0.0 1033385
12:00+11св34486 0.0 10331312
15:00+12св344630 0.0 10321514
18:00+8ссв33615 0.0 103328
21:00+7св33685 0.0 103432
1 октября, пт
пт100:00+6всв227440 0.0 103515
03:00+7з226594 0.0 103527
06:00+7сз2468100 0.0 103589
09:00+9ссз3463100 0.0 1035252
12:00+12ссз2359100 0.0 1035608
15:00+14ссз235373 0.0 10341223
18:00+12с366662 0.0 1034178
21:00+9с33797 0.0 103540
2 октября, сб
сб200:00+8с228292 0.0 103538
03:00+9с2277100 0.0 103459
06:00+9ссв2278100 0.0 103434
09:00+10ссв1273100 0.0 1034106
12:00+12св2268100 0.0 1034331
15:00+13всв126797 0.0 1033352
18:00+11ююв117693 0.0 103310
21:00+11ю0175100 0.0 103310